Location: El Bakhil
(32.7726°N, 5.5387°W)
Time: 18:41:41
(UTC+00:00)

ISS - Visible Passes

Search period start: 04 August 2021 00:00
Search period end: 14 August 2021 00:00
Orbit: 419 x 421 km, 51.6° (Epoch: 04 August)

Date Brightness Start Highest point End Pass type
(mag) Time Alt. Az. Time Alt. Az. Time Alt. Az.
04 Aug -3.0 19:42:29 10° NNW 19:45:43 41° NE 19:48:55 10° ESE visible
04 Aug -1.1 21:20:27 10° W 21:22:06 14° WSW 21:22:06 14° WSW visible
05 Aug -2.0 20:32:13 10° WNW 20:35:04 25° SW 20:36:54 16° S visible
06 Aug -3.0 19:44:34 10° WNW 19:47:50 49° SW 19:51:06 10° SSE visible
08 Aug -1.0 19:48:00 10° W 19:49:43 13° SW 19:51:27 10° SSW visible
